Weather History for KBIX - May, 2014

Change the Weather History Date:

Tuesday, May 27, 2014

  Actual Average Record
Temperature  
Mean Temperature 80 °F -  
Max Temperature 86 °F 84 °F 98 °F (1953)
Min Temperature 73 °F 69 °F 51 °F (1961)
Cooling Degree Days 14    
Growing Degree Days 30 (Base 50)    
Moisture  
Dew Point 72 °F    
Average Humidity 76    
Maximum Humidity 83    
Minimum Humidity 64    
Precipitation  
Precipitation 0.34 in - - ()
Sea Level Pressure  
Sea Level Pressure 30.03 in    
Wind  
Wind Speed 11 mph (South)    
Max Wind Speed 23 mph    
Max Gust Speed 29 mph    
Visibility 9 miles    
Events Rain , Thunderstorm    
Averages and records for this station are not official NWS values.
T = Trace of Precipitation, MM = Missing Value Source: NWS Daily Summary

Daily Weather History Graph

Daily Weather History Graph

Search for Another Location

Airport or City:

Trip Planner

Search our weather history database for the weather conditions in past years. The results will help you decide how hot, cold, wet, or windy it might be!

Date:

Astronomy

May. 27, 2014 Rise Set
Actual Time 5:55 AM CDT 7:50 PM CDT
Civil Twilight 5:28 AM CDT 8:17 PM CDT
Nautical Twilight 4:56 AM CDT 8:50 PM CDT
Astronomical Twilight 4:21 AM CDT 9:24 PM CDT
Moon 5:10 AM CDT (5/27) 6:58 PM CDT (5/27)
Length of Visible Light 14h 48m
Length of Day
13h 54m
Waning Crescent, 1% of the Moon is Illuminated
May 27
Waning Crescent
May 28
New
Jun 5
First Quarter
Jun 12
Full
Jun 19
Last Quarter

Hourly Weather History & Observations

Time (CDT) Temp. Heat Index Dew Point Humidity Pressure Visibility Wind Dir Wind Speed Gust Speed Precip Events Conditions
12:58 AM 79.0 °F - 71.8 °F 78% 30.10 in 10.0 mi South 8.1 mph - N/A   Clear
1:58 AM 79.2 °F - 71.1 °F 76% 30.09 in 10.0 mi South 9.2 mph - N/A   Partly Cloudy
2:58 AM 79.0 °F - 70.5 °F 75% 30.08 in 10.0 mi South 8.1 mph - N/A   Scattered Clouds
3:58 AM 79.2 °F - 70.2 °F 74% 30.08 in 10.0 mi South 9.2 mph - N/A   Mostly Cloudy
4:58 AM 78.8 °F - 70.0 °F 74% 30.09 in 10.0 mi South 9.2 mph - N/A   Scattered Clouds
5:58 AM 79.0 °F - 70.5 °F 75% 30.08 in 10.0 mi South 8.1 mph - N/A   Scattered Clouds
6:58 AM 79.3 °F - 70.9 °F 75% 30.09 in 10.0 mi South 8.1 mph - N/A   Scattered Clouds
7:58 AM 81.1 °F 84.9 °F 70.5 °F 70% 30.11 in 10.0 mi South 9.2 mph - N/A   Mostly Cloudy
8:13 AM 80.6 °F 84.6 °F 71.6 °F 74% 30.10 in 10.0 mi South 9.2 mph - N/A   Overcast
8:33 AM 80.6 °F 84.6 °F 71.6 °F 74% 30.10 in 10.0 mi South 9.2 mph - N/A   Overcast
8:58 AM 81.3 °F 85.4 °F 71.2 °F 71% 30.11 in 10.0 mi South 11.5 mph - N/A   Overcast
9:58 AM 82.9 °F 88.3 °F 72.1 °F 70% 30.09 in 10.0 mi South 11.5 mph - N/A   Overcast
10:23 AM 84.2 °F 89.6 °F 71.6 °F 66% 30.08 in 10.0 mi South 13.8 mph 19.6 mph N/A   Overcast
10:58 AM 83.7 °F 88.9 °F 71.8 °F 67% 30.09 in 10.0 mi South 15.0 mph - N/A   Overcast
11:23 AM 84.2 °F 89.6 °F 71.6 °F 66% 30.08 in 10.0 mi SSE 11.5 mph - N/A   Mostly Cloudy
11:58 AM 84.2 °F 89.6 °F 71.8 °F 66% 30.09 in 10.0 mi SSE 12.7 mph 19.6 mph N/A   Mostly Cloudy
12:03 PM 84.2 °F 89.6 °F 71.6 °F 66% 30.08 in 10.0 mi South 12.7 mph 19.6 mph N/A   Mostly Cloudy
12:58 PM 85.8 °F 92.2 °F 72.3 °F 64% 30.08 in 10.0 mi South 12.7 mph - N/A   Partly Cloudy
1:58 PM 86.2 °F 93.0 °F 72.5 °F 64% 30.07 in 10.0 mi South 11.5 mph - N/A   Partly Cloudy
2:58 PM 84.2 °F 90.3 °F 72.5 °F 68% 30.06 in 10.0 mi SSE 12.7 mph 19.6 mph N/A   Scattered Clouds
3:58 PM 83.3 °F 88.7 °F 72.3 °F 69% 30.03 in 10.0 mi South 13.8 mph - N/A   Mostly Cloudy
4:18 PM 82.4 °F 88.2 °F 73.4 °F 74% 30.02 in 10.0 mi SSE 12.7 mph - N/A   Mostly Cloudy
4:28 PM 82.4 °F 87.2 °F 71.6 °F 70% 30.02 in 10.0 mi South 10.4 mph - N/A   Mostly Cloudy
4:33 PM 84.2 °F 89.6 °F 71.6 °F 66% 30.01 in 10.0 mi South 10.4 mph - N/A   Mostly Cloudy
4:53 PM 82.4 °F 88.2 °F 73.4 °F 74% 30.01 in 10.0 mi South 11.5 mph 18.4 mph N/A   Mostly Cloudy
4:58 PM 82.6 °F 88.1 °F 72.7 °F 72% 30.02 in 10.0 mi South 15.0 mph 17.3 mph N/A   Scattered Clouds
5:18 PM 82.4 °F 88.2 °F 73.4 °F 74% 30.00 in 10.0 mi South 10.4 mph 19.6 mph N/A   Mostly Cloudy
5:37 PM 82.4 °F 88.2 °F 73.4 °F 74% 29.99 in 10.0 mi South 12.7 mph - N/A Thunderstorm Thunderstorm
5:47 PM 82.4 °F 88.2 °F 73.4 °F 74% 29.99 in 10.0 mi South 15.0 mph 17.3 mph N/A Thunderstorm Thunderstorm
5:52 PM 82.4 °F 88.2 °F 73.4 °F 74% 29.99 in 10.0 mi SSE 12.7 mph 17.3 mph N/A   Mostly Cloudy
5:58 PM 82.0 °F 87.4 °F 72.9 °F 74% 30.00 in 10.0 mi South 12.7 mph 20.7 mph N/A   Mostly Cloudy
6:08 PM 80.6 °F 85.4 °F 73.4 °F 79% 30.00 in 6.0 mi SSW 23.0 mph 28.8 mph N/A Rain Rain
6:10 PM 78.8 °F - 71.6 °F 78% 30.01 in 2.5 mi SSE 19.6 mph 28.8 mph N/A Rain Rain
6:11 PM 77.0 °F - 71.6 °F 83% 30.01 in 1.2 mi ESE 18.4 mph 28.8 mph N/A Rain Rain
6:16 PM 75.2 °F - 66.2 °F 73% 29.99 in 0.5 mi Variable 4.6 mph 28.8 mph N/A Rain Heavy Rain
6:21 PM 73.4 °F - 68.0 °F 83% 29.99 in 1.0 mi SSW 8.1 mph - N/A Rain Light Rain
6:26 PM 75.2 °F - 68.0 °F 78% 30.00 in 10.0 mi SSW 6.9 mph - N/A   Mostly Cloudy
6:58 PM 79.0 °F - 73.0 °F 82% 30.01 in 10.0 mi South 6.9 mph - 0.34 in   Mostly Cloudy
7:28 PM 78.8 °F - 73.4 °F 83% 30.00 in 10.0 mi South 11.5 mph 19.6 mph N/A   Mostly Cloudy
7:38 PM 78.8 °F - 73.4 °F 83% 30.00 in 10.0 mi South 11.5 mph 19.6 mph N/A   Scattered Clouds
7:58 PM 79.2 °F - 73.4 °F 82% 30.01 in 10.0 mi South 10.4 mph - N/A   Mostly Cloudy
8:58 PM 79.7 °F - 72.5 °F 79% 30.01 in 10.0 mi SSE 10.4 mph - N/A   Partly Cloudy
9:18 PM 78.8 °F - 71.6 °F 78% 30.00 in 10.0 mi South 11.5 mph - N/A   Mostly Cloudy
9:28 PM 78.8 °F - 69.8 °F 74% 30.00 in 10.0 mi SE 8.1 mph - N/A   Mostly Cloudy
9:33 PM 78.8 °F - 71.6 °F 78% 30.00 in 10.0 mi SE 5.8 mph - N/A   Mostly Cloudy
9:38 PM 78.8 °F - 71.6 °F 78% 30.00 in 10.0 mi SSE 8.1 mph - N/A Rain Light Rain
9:43 PM 78.8 °F - 73.4 °F 83% 29.99 in 10.0 mi SSE 11.5 mph - N/A Rain Light Rain
9:47 PM 78.8 °F - 73.4 °F 83% 29.99 in 10.0 mi SSE 12.7 mph 17.3 mph N/A   Mostly Cloudy
9:57 PM 78.8 °F - 73.4 °F 83% 30.00 in 10.0 mi SSE 13.8 mph 18.4 mph N/A   Mostly Cloudy
9:58 PM 78.8 °F - 73.4 °F 83% 30.01 in 10.0 mi South 12.7 mph 18.4 mph 0.00 in   Mostly Cloudy
10:08 PM 78.8 °F - 73.4 °F 83% 30.00 in 10.0 mi South 10.4 mph 18.4 mph N/A   Mostly Cloudy
10:13 PM 78.8 °F - 73.4 °F 83% 30.00 in 10.0 mi South 9.2 mph 18.4 mph N/A   Mostly Cloudy
10:33 PM 78.8 °F - 73.4 °F 83% 30.01 in 10.0 mi SSE 10.4 mph - N/A   Mostly Cloudy
10:58 PM 79.7 °F - 73.6 °F 81% 30.01 in 10.0 mi SSE 10.4 mph - N/A Thunderstorm Mostly Cloudy
11:03 PM 80.6 °F 85.4 °F 73.4 °F 79% 30.00 in 10.0 mi South 10.4 mph - N/A Thunderstorm Mostly Cloudy
11:13 PM 80.6 °F 85.4 °F 73.4 °F 79% 30.00 in 10.0 mi South 13.8 mph - N/A   Mostly Cloudy
11:18 PM 78.8 °F - 73.4 °F 83% 30.00 in 10.0 mi South 12.7 mph - N/A   Mostly Cloudy
11:28 PM 78.8 °F - 73.4 °F 83% 29.99 in 10.0 mi South 16.1 mph 19.6 mph N/A   Mostly Cloudy
11:33 PM 78.8 °F - 73.4 °F 83% 29.99 in 10.0 mi South 16.1 mph - N/A   Mostly Cloudy
11:38 PM 78.8 °F - 73.4 °F 83% 29.99 in 10.0 mi South 12.7 mph - N/A   Mostly Cloudy
11:48 PM 78.8 °F - 73.4 °F 83% 29.99 in 10.0 mi South 13.8 mph 20.7 mph N/A   Mostly Cloudy
11:53 PM 78.8 °F - 73.4 °F 83% 29.99 in 10.0 mi South 17.3 mph 20.7 mph N/A   Mostly Cloudy
11:58 PM 79.7 °F - 73.0 °F 80% 30.00 in 10.0 mi South 12.7 mph 20.7 mph N/A Thunderstorm Mostly Cloudy